Regional Weather Roundup
Issued by NWS

Home | Current Version | Previous Version | Graphics & Text | Print | Product List | Glossary Off
Versions: 1 2 3 4 5 6 7 8 9 10 11 12 13 14 15 16 17 18 19 20 21 22 23 24 25 26 27 28 29 30 31 32 33 34 35 36 37 38 39 40 41 42 43 44 45 46 47 48 49 50

000
ASUS43 KMKX 012021
RWRWI

WISCONSIN REGIONAL WEATHER ROUNDUP
NATIONAL WEATHER SERVICE MILWAUKEE/SULLIVAN WI
300 PM CDT WED OCT 01 2014

NOTE: "FAIR" INDICATES FEW OR NO CLOUDS BELOW 12,000 FEET WITH NO
SIGNIFICANT WEATHER AND/OR OBSTRUCTIONS TO VISIBILITY.

WIZ001-002-006>008-014>016-023>028-012100-
NORTHWEST WISCONSIN

CITY           SKY/WX    TMP DP  RH WIND       PRES   REMARKS
SUPERIOR ARPT  LGT RAIN  50  50  99 E3        29.81S
ASHLAND        RAIN      51  50  96 CALM      29.82S FOG
HAYWARD        RAIN      50  49  96 S3        29.83R FOG
SIREN          RAIN      50  49  96 SE6       29.81S
CUMBERLAND     LGT RAIN  48  46  93 S5        29.82F
RICE LAKE      RAIN      51  49  93 SE6       29.84S
CHETEK         DRIZZLE   51  50  97 SE3       29.83S
LADYSMITH      CLOUDY    53  51  95 SE10      29.83F
EAU CLAIRE     LGT RAIN  53  51  93 SE7       29.82S FOG
MENOMONIE      CLOUDY    52  52  98 E5        29.82F FOG
NEW RICHMOND   RAIN      51  51  99 SE5       29.80F
OSCEOLA        DRIZZLE   52  52 100 SE7       29.81F
$$

WIZ003>005-009-010-017-018-012100-
NORTH CENTRAL WISCONSIN

CITY           SKY/WX    TMP DP  RH WIND       PRES   REMARKS
MANITOWISH WTR LGT RAIN  53  49  85 SE9       29.84F
ARBOR VITAE    LGT RAIN  57  52  82 SE7       29.86F
WOODRUFF       LGT RAIN  57  52  82 SE7       29.86F
RHINELANDER    CLOUDY    56  48  74 SE10      29.89F
EAGLE RIVER    CLOUDY    56  46  67 SE10      29.88F
LAND O LAKES   PTSUNNY   57  47  70 S8        29.89S
PHILLIPS       CLOUDY    52  50  93 SE7       29.82F
TOMAHAWK       RAIN      54  49  85 SE5       29.88F
MEDFORD        CLOUDY    53  50  87 SE7       29.86F
MERRILL        LGT RAIN  57  52  84 SE6       29.87F
$$

WIZ029-030-035-036-043>047-012100-
CENTRAL WISCONSIN

CITY           SKY/WX    TMP DP  RH WIND       PRES   REMARKS
WAUSAU         LGT RAIN  60  51  72 SE7       29.87F
MOSINEE        NOT AVBL
MARSHFIELD     CLOUDY    58  51  78 SE8       29.86F
STEVENS POINT  LGT RAIN  59  50  72 SE12      29.88F
WAUPACA        PTSUNNY   68  52  56 E15       29.89F
WAUTOMA        NOT AVBL
WISC RAPIDS    CLOUDY    60  52  74 SE7       29.88F
CAMP DOUGLAS   CLOUDY    63  57  82 SE5       29.85F
$$

WIZ011>013-019>022-031-037>040-048>050-012100-
NORTHEAST WISCONSIN

CITY           SKY/WX    TMP DP  RH WIND       PRES   REMARKS
ANTIGO         CLOUDY    56  50  80 SE15      29.90F
SHAWANO        CLOUDY    64  52  64 SE9       29.92S
OCONTO         CLOUDY    57  53  87 SE13G18   29.94F
STURGEON BAY   NOT AVBL
GREEN BAY      PTSUNNY   62  53  72 SE14      29.93F
MANITOWOC      NOT AVBL
APPLETON       PTSUNNY   63  52  67 SE14      29.92F
CLINTONVILLE   MOSUNNY   64  52  63 S12       29.90F
OSHKOSH        PTSUNNY   64  52  64 SE13G21   29.90F
$$

WIZ032>034-041-042-053>061-012100-
SOUTHWEST WISCONSIN

CITY           SKY/WX    TMP DP  RH WIND       PRES   REMARKS
LA CROSSE      CLOUDY    62  54  74 CALM      29.83F
SPARTA         CLOUDY    61  52  72 CALM      29.85S
VIROQUA        CLOUDY    64  53  66 SE8       29.83F
BOSCOBEL       PTSUNNY   70  54  56 SE3       29.83F
PRAIRIE DU CHI CLOUDY    67  52  57 SE8       29.82F
PLATTEVILLE    CLOUDY    71  56  58 SE13      29.85S
$$

WIZ056-057-062-063-064-067-068-012100-
SOUTH CENTRAL WISCONSIN

CITY           SKY/WX    TMP DP  RH WIND       PRES   REMARKS
REEDSBURG      CLOUDY    65  54  67 SE8       29.85F
BARABOO/DELLS  CLOUDY    66  51  58 SE8       29.85F
LONE ROCK      CLOUDY    71  53  52 SE12      29.84F
MINERAL POINT  CLOUDY    68  54  60 SE12      29.85F
MADISON        CLOUDY    69  52  54 SE14      29.86F
MIDDLETON      CLOUDY    69  51  53 SE10      29.85F
WATERTOWN      PTSUNNY   67  52  59 SE12      29.88F
MONROE         CLOUDY    68  54  60 SE13      29.86S
JANESVILLE     NOT AVBL
$$

WIZ051-052-058>065-066-070>072-012100-
SOUTHEAST WISCONSIN

CITY           SKY/WX    TMP DP  RH WIND       PRES   REMARKS
MILWAUKEE      PTSUNNY   60  51  72 SE20      29.94F
WAUKESHA       SUNNY     63  50  63 SE15      29.93F
MILWAUKEE/TIMM SUNNY     63  48  59 SE14      29.95F
RACINE         MOSUNNY   61  51  70 SE17G25   29.96F
BURLINGTON     PTSUNNY   64  51  61 E12       29.91F
KENOSHA        MOSUNNY   62  52  69 SE13G23   29.94F
FOND DU LAC    PTSUNNY   64  51  62 SE16      29.90F
SHEBOYGAN      CLOUDY    58  52  80 SE14G22   29.95F
WEST BEND      MOSUNNY   61  50  67 E13G18    29.93S
JUNEAU         PTSUNNY   66  51  59 SE13      29.90F
$$

LSZ147-162-012100-
LAKE SUPERIOR

STATION/POSITION TIME  TEMP    WIND        PRES    WAVE
                       AIR SEA DIR/SP/G            HT/PER
                 (UTC) (F)     (DEG/KT/KT) (MB)    (FT/S)
W MID LAKE BUOY  1950   49 50  360/  4/  6 1010.8F   1/ 3
DEVILS ISLAND    2000   49      90/ 11/ 13 1010.4F
SAXON HARBOR     1900   52        CALM     1010.2F
$$

LMZ867-665-643>646-012100-
LAKE MICHIGAN

STATION/POSITION TIME  TEMP    WIND        PRES    WAVE
                       AIR SEA DIR/SP/G            HT/PER
                 (UTC) (F)     (DEG/KT/KT) (MB)    (FT/S)
CHAMBERS ISLAND  1900   59     140/  4/ 12 1015.2F
N MID LAKE BUOY  1950   55 58  170/  8/ 10 1015.5F   1/ 3
NORTHPORT PIER   1900   55     150/ 12/ 15 1015.2F
SISTER BAY       1757          170/ 14/ 21   N/A
KEWAUNEE LAKESHO 2000   55     150/ 13/ 17 1014.0F
SHEBOYGAN LAKESH 2000   55 56  140/ 19/ 22 1014.5F
PORT WASHINGTON  1940   59     150/ 12/ 15 1014.6F
ATWATER BUOY     2000   58     150/ 16/ 19 1015.0F
MILWAUKEE LAKESH 2000   58     150/ 16/ 18   N/A
S MID LAKE BUOY  1950   58 61  130/ 12/ 16 1015.4F   2/ 3
KENOSHA   LAKESH 2000   60     130/ 19/ 20 1013.2F
$$

TC  - TEMPERATURE IN CELSIUS
VSB - VISIBILITY IN STATUTE MILES
WCI - WIND CHILL INDEX
HX  - HEAT INDEX



USA.gov is the U.S. government's official web portal to all federal, state and local government web resources and services.